[[{"header":{"parameterUnit":"m.s-1","parameterCategory":2,"la1":30.2991,"la2":30.254,"lo1":-89.0895,"lo2":-89.0444,"dy":0.0017,"dx":0.0017,"nx":28,"ny":28,"refTime":"2025-08-18T09:00:00:Z","depth":"0","parameterNumber":2,"parameterNumberName":"U-component_of_CURRENTS"},"data":[0,0,0,0,0,0,0,0,0,0,0,0,0,0,0,0,0,0,0,0,0,0,0,0,0,0,0,0,0,0,0,0,0,0,0,0,0,0,0,0,0,0,0,0,0,0,0,0,0,0,0,0,0,0,0,0,0,0,-0.2891,-0.2891,0,-0.2933,-0.2934,-0.2934,-0.3058,-0.3061,-0.3064,-0.3066,-0.325,-0.3252,-0.3254,0,0,0,0,0,0,0,0,0,0,0,0,0,-0.2752,-0.2755,-0.2891,-0.2891,-0.2892,-0.2933,-0.2934,-0.2934,-0.3057,-0.3061,-0.3064,-0.3068,-0.3249,-0.3252,-0.3254,0,0,0,0,0,0,0,0,0,0,0,0,0,-0.2804,-0.2756,-0.2891,-0.296,-0.2966,-0.2933,-0.2934,-0.2934,-0.3057,-0.3061,-0.3065,-0.3069,-0.3248,-0.3251,-0.3255,-0.319,0,0,-0.3265,-0.3266,0,0,0,0,0,0,0,0,-0.2801,-0.2809,-0.2949,-0.2955,-0.2962,-0.2996,-0.2952,-0.3027,-0.3056,-0.3021,-0.3066,-0.3071,-0.3176,-0.3185,-0.318,-0.3198,-0.3206,-0.3265,-0.3267,-0.3269,-0.327,0,0,0,0,0,0,0,-0.2798,-0.2807,-0.2906,-0.2949,-0.2957,-0.2932,-0.2946,-0.2965,-0.3075,-0.3024,-0.3034,-0.3039,-0.3181,-0.3176,-0.3185,-0.3209,-0.3265,-0.3268,-0.327,-0.3271,-0.3105,-0.3099,0,0,0,0,0,0,-0.28,-0.2804,-0.2905,-0.2908,-0.2892,-0.2932,-0.2947,-0.298,-0.3072,-0.309,-0.3036,-0.3045,-0.3168,-0.3181,-0.3192,-0.3087,-0.3269,-0.3272,-0.3274,-0.3112,-0.3104,-0.3097,0,0,0,0,0,0,-0.2797,-0.2809,-0.2903,-0.2856,-0.2867,-0.2932,-0.2966,-0.2978,-0.2998,-0.308,-0.3101,-0.3046,-0.3172,-0.3188,-0.3172,-0.3098,-0.3273,-0.3276,-0.3119,-0.3109,-0.31,-0.29,0,0,0,0,0,0,-0.2793,-0.2808,-0.2817,-0.2857,-0.287,-0.286,-0.2962,-0.2976,-0.2994,-0.3007,-0.3094,-0.3115,-0.3176,-0.3165,-0.3175,-0.3106,-0.3279,-0.3127,-0.3115,-0.3103,-0.2915,-0.2885,-0.2859,0,0,0,0,0,-0.2788,-0.2773,-0.2818,-0.2829,-0.2886,-0.2857,-0.2858,-0.2917,-0.299,-0.2959,-0.3008,-0.3113,-0.3096,-0.3163,-0.3176,-0.3106,-0.3133,-0.3118,-0.3104,-0.2927,-0.289,-0.2859,0,0,0,0,0,0,-0.2707,-0.2785,-0.2835,-0.2846,-0.2845,-0.2878,-0.2852,-0.2908,-0.292,-0.2949,-0.3046,-0.3063,-0.3024,-0.3066,-0.3139,-0.3009,-0.3125,-0.3112,-0.2986,-0.2952,-0.2925,-0.2944,-0.3282,0,0,0,0,0,-0.2695,-0.2706,-0.2763,-0.2754,-0.276,-0.2809,-0.2807,-0.2852,-0.2875,-0.2889,-0.2938,-0.2968,-0.2961,-0.2965,-0.2973,-0.2906,-0.2952,-0.2857,-0.2829,-0.2806,-0.282,-0.2802,-0.2776,-0.3049,-0.305,-0.305,0,0,-0.2646,-0.2697,-0.2696,-0.2736,-0.2747,-0.2703,-0.2817,-0.2804,-0.2767,-0.2903,-0.2854,-0.289,-0.2922,-0.2845,-0.2828,-0.2882,-0.2733,-0.2787,-0.2768,-0.2796,-0.2784,-0.2759,-0.2736,-0.304,-0.3041,-0.3043,0,0,-0.2516,-0.2612,-0.2558,-0.2564,-0.2588,-0.2619,-0.2617,-0.2647,-0.2665,-0.2613,-0.2694,-0.2669,-0.2665,-0.2656,-0.2656,-0.2469,-0.2597,-0.2471,-0.2347,-0.2326,-0.2306,-0.2289,-0.2253,-0.2235,-0.2446,-0.2446,-0.2445,0,-0.2434,-0.2443,-0.2521,-0.247,-0.2479,-0.2577,-0.2517,-0.2511,-0.2525,-0.2535,-0.2569,-0.2541,-0.2562,-0.2486,-0.2407,-0.2412,-0.2435,-0.2484,-0.2297,-0.2281,-0.2268,-0.2236,-0.2219,-0.2434,-0.2436,-0.2437,-0.2438,0,-0.2271,-0.2284,-0.2247,-0.2242,-0.2236,-0.2211,-0.2244,-0.2237,-0.2287,-0.2304,-0.2262,-0.2262,-0.2266,-0.2225,-0.2261,-0.2157,-0.2213,-0.228,-0.2402,-0.2229,-0.2204,-0.219,-0.2418,-0.2422,-0.2425,-0.2428,0,0,-0.2086,-0.2125,-0.2117,-0.2137,-0.2153,-0.2148,-0.2078,-0.2077,-0.2086,-0.2049,-0.2033,-0.1947,-0.2014,-0.2014,-0.2048,-0.1998,-0.1873,-0.2087,-0.2092,-0.2086,-0.1828,-0.1749,-0.1727,-0.1935,-0.1932,-0.193,-0.1831,0,-0.194,-0.1868,-0.1911,-0.1849,-0.1846,-0.1928,-0.1873,-0.1886,-0.1914,-0.1908,-0.1906,-0.1895,-0.1913,-0.1931,-0.187,-0.192,-0.1837,-0.1894,-0.1968,-0.1969,-0.195,-0.1708,-0.1644,-0.1541,-0.1818,-0.1816,-0.1814,0,-0.1789,-0.1793,-0.172,-0.1786,-0.1786,-0.1742,-0.1794,-0.1756,-0.1764,-0.1788,-0.1773,-0.1819,-0.1746,-0.1794,-0.173,-0.1784,-0.1771,-0.1777,-0.1775,-0.1779,-0.1864,-0.1765,-0.1507,-0.1511,-0.1794,-0.1796,-0.1797,0,-0.1723,-0.1687,-0.1666,-0.1673,-0.1702,-0.1693,-0.1709,-0.1724,-0.1731,-0.1732,-0.1749,-0.1708,-0.1707,-0.1679,-0.1673,-0.1718,-0.1616,-0.1688,-0.158,-0.1576,-0.1573,-0.1571,-0.1365,-0.1595,-0.1596,-0.1596,-0.1596,0,-0.1627,-0.1614,-0.1647,-0.1643,-0.1634,-0.1666,-0.1658,-0.1673,-0.1688,-0.169,-0.1701,-0.1686,-0.1686,-0.1648,-0.1636,-0.1543,-0.1577,-0.1507,-0.1523,-0.1488,-0.148,-0.1534,-0.1586,-0.1592,-0.1593,-0.1594,-0.1594,0,-0.1565,-0.158,-0.1573,-0.16,-0.1609,-0.1608,-0.164,-0.1647,-0.1664,-0.1666,-0.1667,-0.166,-0.1599,-0.157,-0.1522,-0.1486,-0.139,-0.138,-0.132,-0.1327,-0.1224,-0.1267,-0.1128,-0.1095,-0.123,-0.1227,-0.1225,0,-0.1526,-0.1516,-0.1545,-0.155,-0.1558,-0.1572,-0.1587,-0.1624,-0.1641,-0.1644,-0.1644,-0.1584,-0.1514,-0.1383,-0.1312,-0.1211,-0.126,-0.1106,-0.1143,-0.1139,-0.1202,-0.1256,-0.1244,-0.1044,-0.104,-0.1037,-0.1035,0,-0.1458,-0.1472,-0.1475,-0.1496,-0.1511,-0.1539,-0.1568,-0.1581,-0.1625,-0.1593,-0.1545,-0.1476,-0.1343,-0.1193,-0.1067,-0.1016,-0.1081,-0.1037,-0.1056,-0.1018,-0.1045,-0.1049,-0.1195,-0.1007,-0.101,-0.1012,-0.1013,-0.1015,-0.1405,-0.1395,-0.1414,-0.1438,-0.1466,-0.1511,-0.1477,-0.1502,-0.1484,-0.1393,-0.1416,-0.1211,-0.1138,-0.0929,-0.0874,-0.0775,-0.0853,-0.0768,-0.0813,-0.0862,-0.0829,-0.0882,-0.0707,-0.0708,-0.0709,-0.071,-0.0711,0,-0.1327,-0.1342,-0.1359,-0.1394,-0.1425,-0.1446,-0.1459,-0.1387,-0.1295,-0.1203,-0.1078,-0.088,-0.0769,-0.0706,-0.0642,-0.0592,-0.0607,-0.0588,-0.0671,-0.0664,-0.0714,-0.0705,-0.0495,-0.0495,-0.0495,-0.0495,-0.0495,-0.0495,-0.128,-0.127,-0.1299,-0.1349,-0.1368,-0.1301,-0.1266,-0.1148,-0.1034,-0.0786,-0.0574,-0.0475,-0.0498,-0.0617,-0.0594,-0.0552,-0.0577,-0.0537,-0.0578,-0.0656,-0.0679,-0.07,-0.0699,-0.0491,-0.0491,-0.0501,-0.0501,-0.0502]},{"header":{"parameterUnit":"m.s-1","parameterCategory":2,"la1":30.2991,"la2":30.254,"lo1":-89.0895,"lo2":-89.0444,"dy":0.0017,"dx":0.0017,"nx":28,"ny":28,"refTime":"2025-08-18T09:00:00:Z","depth":"0","parameterNumber":3,"parameterNumberName":"V-component_of_CURRENTS"},"data":[0,0,0,0,0,0,0,0,0,0,0,0,0,0,0,0,0,0,0,0,0,0,0,0,0,0,0,0,0,0,0,0,0,0,0,0,0,0,0,0,0,0,0,0,0,0,0,0,0,0,0,0,0,0,0,0,0,0,-0.0568,-0.0566,0,-0.036,-0.0357,-0.0355,-0.0183,-0.0182,-0.018,-0.0179,0.0172,0.018,0.0188,0,0,0,0,0,0,0,0,0,0,0,0,0,-0.0726,-0.0724,-0.0568,-0.0565,-0.0563,-0.036,-0.0357,-0.0354,-0.0184,-0.0182,-0.018,-0.0178,0.0169,0.0179,0.0188,0,0,0,0,0,0,0,0,0,0,0,0,0,-0.0599,-0.0724,-0.0568,-0.0456,-0.0444,-0.0361,-0.0357,-0.0353,-0.0184,-0.0182,-0.0179,-0.0177,0.0166,0.0178,0.019,0.0218,0,0,0.0226,0.0231,0,0,0,0,0,0,0,0,-0.0607,-0.0593,-0.0475,-0.0464,-0.045,-0.0298,-0.0284,-0.0156,-0.0185,-0.0279,-0.0179,-0.0176,0.0024,0.0048,0.0085,0.0234,0.0249,0.0227,0.0234,0.0239,0.0243,0,0,0,0,0,0,0,-0.0616,-0.0601,-0.0482,-0.0473,-0.0458,-0.0385,-0.0365,-0.0259,-0.0138,-0.0271,-0.0259,-0.0242,0.0033,0.0072,0.0094,0.0254,0.0227,0.0237,0.0245,0.0249,0.0485,0.0484,0,0,0,0,0,0,-0.0655,-0.061,-0.0489,-0.0476,-0.0528,-0.0385,-0.0362,-0.0347,-0.0141,-0.011,-0.0244,-0.0234,0.0051,0.008,0.0108,0.0182,0.0239,0.025,0.0257,0.0485,0.0484,0.0483,0,0,0,0,0,0,-0.0659,-0.0647,-0.0497,-0.054,-0.0517,-0.0386,-0.0369,-0.0344,-0.0298,-0.0123,-0.0088,-0.0224,0.0054,0.0091,0.0185,0.0196,0.0256,0.0267,0.0486,0.0485,0.0484,0.0313,0,0,0,0,0,0,-0.0665,-0.0649,-0.0657,-0.0544,-0.0516,-0.0446,-0.037,-0.0341,-0.0293,-0.0278,-0.0094,-0.0059,0.0059,0.0166,0.0197,0.0214,0.0276,0.0488,0.0486,0.0484,0.032,0.0306,0.0294,0,0,0,0,0,-0.0671,-0.0675,-0.0659,-0.0644,-0.0529,-0.0447,-0.0425,-0.0322,-0.0295,-0.0274,-0.0172,-0.0065,0.0179,0.0174,0.0211,0.0231,0.0488,0.0486,0.0484,0.0325,0.0309,0.0294,0,0,0,0,0,0,-0.0735,-0.0656,-0.0634,-0.0612,-0.0543,-0.0418,-0.039,-0.0341,-0.0247,-0.0235,-0.0081,-0.004,0.0059,0.015,0.0141,0.0291,0.0354,0.0359,0.022,0.0206,0.0193,0.0174,0.0286,0,0,0,0,0,-0.0765,-0.0748,-0.0663,-0.0645,-0.0618,-0.0519,-0.0478,-0.0417,-0.032,-0.0276,-0.0157,-0.0035,0.0076,0.014,0.0259,0.0325,0.0383,0.0363,0.035,0.0338,0.0345,0.0386,0.0376,0.0477,0.0477,0.0477,0,0,-0.0779,-0.074,-0.0726,-0.0659,-0.0596,-0.0547,-0.0485,-0.043,-0.0387,-0.0253,-0.0164,-0.0068,0.0084,0.0172,0.0224,0.025,0.0337,0.0336,0.0325,0.0339,0.0382,0.0373,0.0364,0.0475,0.0476,0.0476,0,0,-0.0783,-0.0774,-0.0751,-0.0709,-0.0639,-0.0581,-0.0578,-0.0474,-0.0425,-0.0349,-0.0242,-0.0172,0.0013,0.0101,0.0176,0.0154,0.0272,0.0208,0.0129,0.0166,0.0158,0.0151,0.0191,0.019,0.0195,0.0194,0.0194,0,-0.0799,-0.0771,-0.0731,-0.0698,-0.0667,-0.0605,-0.057,-0.0517,-0.0398,-0.0368,-0.0333,-0.0126,-0.0019,0.008,0.0071,0.0128,0.0171,0.0172,0.0146,0.0142,0.0138,0.0181,0.0182,0.0186,0.0187,0.0188,0.0188,0,-0.0774,-0.0761,-0.0746,-0.0691,-0.0658,-0.0625,-0.0559,-0.0528,-0.0482,-0.042,-0.0331,-0.022,-0.0096,-0.0063,0.0006,0.0039,0.0085,0.0125,0.0176,0.0117,0.0167,0.017,0.0174,0.0177,0.0179,0.0181,0,0,-0.077,-0.0733,-0.0729,-0.0721,-0.0661,-0.0629,-0.059,-0.0529,-0.0505,-0.0427,-0.0381,-0.0256,-0.0221,-0.014,-0.0064,-0.0049,-0.0063,0.0012,0.0018,0.0035,0.0023,0.0045,0.0052,-0.003,-0.003,-0.003,0.006,0,-0.0753,-0.0726,-0.0701,-0.0675,-0.0659,-0.0621,-0.0589,-0.0541,-0.0489,-0.0436,-0.0368,-0.0282,-0.024,-0.0198,-0.0181,-0.0066,-0.0056,-0.009,0.0095,0.01,0.0113,0.0056,0.0089,0.0171,0.0064,0.0065,0.0066,0,-0.0728,-0.0721,-0.0703,-0.0691,-0.0678,-0.0656,-0.0622,-0.0582,-0.0515,-0.0476,-0.0418,-0.0343,-0.0287,-0.0259,-0.0138,-0.0158,-0.0088,-0.0025,-0.0019,0.007,0.0129,0.0221,0.0183,0.0278,0.0072,0.0072,0.0071,0,-0.0757,-0.0725,-0.0725,-0.0716,-0.0683,-0.0676,-0.0654,-0.0598,-0.057,-0.0506,-0.0474,-0.0391,-0.0331,-0.0252,-0.0127,-0.0129,0.0001,0.0023,0.0106,0.0109,0.0211,0.0223,0.0278,0.0082,0.0082,0.0082,0.0082,0,-0.0761,-0.0759,-0.0746,-0.0748,-0.0751,-0.0715,-0.0701,-0.0668,-0.0613,-0.057,-0.0504,-0.0445,-0.033,-0.0232,-0.0139,-0.0001,-0.0004,0.0088,0.0129,0.0151,0.0156,0.0307,0.0344,0.0085,0.0085,0.0084,0.0083,0,-0.079,-0.0778,-0.0783,-0.0769,-0.0767,-0.0772,-0.0742,-0.0727,-0.0672,-0.0612,-0.0594,-0.0479,-0.0348,-0.0229,-0.0074,-0.0001,0.0186,0.0167,0.0182,0.0222,0.0367,0.0393,0.0518,0.059,0.0263,0.0264,0.0265,0,-0.08,-0.0809,-0.0815,-0.0826,-0.0822,-0.0821,-0.0817,-0.0768,-0.0735,-0.0616,-0.0584,-0.0455,-0.0333,-0.0115,0.0025,0.0182,0.0257,0.0297,0.0285,0.037,0.0431,0.045,0.0503,0.0354,0.0356,0.0357,0.0358,0,-0.0824,-0.083,-0.084,-0.0871,-0.088,-0.0871,-0.085,-0.0813,-0.0726,-0.0627,-0.0479,-0.0377,-0.0211,-0.0015,0.0154,0.0248,0.0371,0.0326,0.0421,0.0503,0.0525,0.0617,0.0301,0.0369,0.0368,0.0367,0.0367,0.0366,-0.084,-0.086,-0.088,-0.0908,-0.0917,-0.0878,-0.0794,-0.0727,-0.0599,-0.0363,-0.0351,-0.012,-0.0003,0.0243,0.0329,0.05,0.0477,0.0573,0.0598,0.061,0.0671,0.0367,0.0473,0.0473,0.0472,0.0472,0.0471,0,-0.0846,-0.0876,-0.0911,-0.0904,-0.0879,-0.088,-0.0779,-0.0629,-0.0388,-0.0224,-0.0023,0.0223,0.0395,0.049,0.066,0.0772,0.0804,0.0832,0.0877,0.092,0.0668,0.0663,0.0807,0.0807,0.0807,0.0807,0.0807,0.0806,-0.0848,-0.0886,-0.0911,-0.087,-0.0828,-0.068,-0.0565,-0.0345,-0.0174,0.0201,0.0414,0.0531,0.0626,0.0831,0.1004,0.1027,0.1145,0.1125,0.119,0.1019,0.0997,0.0976,0.0981,0.1188,0.1189,0.1454,0.1456,0.1458]}],[{"header":{"parameterUnit":"m.s-1","parameterCategory":2,"la1":30.2991,"la2":30.254,"lo1":-89.0895,"lo2":-89.0444,"dy":0.0017,"dx":0.0017,"nx":28,"ny":28,"refTime":"2025-08-18T09:00:00:Z","depth":"2","parameterNumber":2,"parameterNumberName":"U-component_of_CURRENTS"},"data":[0,0,0,0,0,0,0,0,0,0,0,0,0,0,0,0,0,0,0,0,0,0,0,0,0,0,0,0,0,0,0,0,0,0,0,0,0,0,0,0,0,0,0,0,0,0,0,0,0,0,0,0,0,0,0,0,0,0,-0.189,-0.1891,0,-0.1997,-0.1999,-0.2001,-0.207,-0.207,-0.207,-0.207,-0.2179,-0.2182,-0.2184,0,0,0,0,0,0,0,0,0,0,0,0,0,-0.1856,-0.1856,-0.189,-0.1891,-0.1892,-0.1997,-0.1999,-0.2001,-0.207,-0.207,-0.207,-0.207,-0.2178,-0.2181,-0.2185,0,0,0,0,0,0,0,0,0,0,0,0,0,-0.1912,-0.1856,-0.189,-0.1936,-0.194,-0.1997,-0.1999,-0.2002,-0.207,-0.207,-0.207,-0.207,-0.2177,-0.2181,-0.2185,-0.2213,0,0,-0.2199,-0.22,0,0,0,0,0,0,0,0,-0.1909,-0.1914,-0.1928,-0.1933,-0.1938,-0.2016,-0.2027,-0.2071,-0.207,-0.2027,-0.207,-0.207,-0.2121,-0.213,-0.2158,-0.2218,-0.2222,-0.2199,-0.2202,-0.2203,-0.2205,0,0,0,0,0,0,0,-0.1905,-0.1911,-0.1938,-0.1929,-0.1935,-0.1988,-0.1996,-0.2036,-0.2077,-0.203,-0.2034,-0.2038,-0.2125,-0.2153,-0.2161,-0.2224,-0.2199,-0.2203,-0.2205,-0.2207,-0.2188,-0.2185,0,0,0,0,0,0,-0.1876,-0.1906,-0.1934,-0.1941,-0.1917,-0.1988,-0.1997,-0.1995,-0.2076,-0.2087,-0.2038,-0.2041,-0.2146,-0.2155,-0.2164,-0.2135,-0.2203,-0.2207,-0.221,-0.2191,-0.2187,-0.2184,0,0,0,0,0,0,-0.1874,-0.1877,-0.193,-0.1922,-0.1932,-0.1987,-0.1986,-0.1997,-0.2039,-0.2081,-0.2093,-0.2069,-0.2146,-0.2158,-0.2176,-0.2142,-0.2209,-0.2213,-0.2195,-0.219,-0.2186,-0.2118,0,0,0,0,0,0,-0.1873,-0.1876,-0.1877,-0.192,-0.1931,-0.194,-0.1986,-0.1999,-0.2038,-0.2044,-0.2112,-0.2121,-0.2147,-0.2169,-0.218,-0.2149,-0.2217,-0.2199,-0.2193,-0.2187,-0.2124,-0.2111,-0.2101,0,0,0,0,0,-0.1871,-0.1857,-0.1876,-0.188,-0.1927,-0.1938,-0.1949,-0.1993,-0.204,-0.2038,-0.2078,-0.212,-0.2138,-0.2171,-0.2185,-0.2154,-0.2202,-0.2194,-0.2188,-0.2129,-0.2114,-0.2101,0,0,0,0,0,0,-0.1846,-0.1863,-0.1886,-0.1879,-0.1899,-0.1947,-0.1955,-0.2001,-0.204,-0.2051,-0.2109,-0.2119,-0.2109,-0.2137,-0.2172,-0.2121,-0.2166,-0.2161,-0.2116,-0.2103,-0.2091,-0.2098,-0.222,0,0,0,0,0,-0.1839,-0.1833,-0.1859,-0.1856,-0.186,-0.1919,-0.1939,-0.1967,-0.2001,-0.2022,-0.207,-0.2094,-0.209,-0.2103,-0.2108,-0.2112,-0.2124,-0.2086,-0.2074,-0.2064,-0.2072,-0.206,-0.205,-0.2161,-0.2161,-0.2161,0,0,-0.1834,-0.1839,-0.1841,-0.1851,-0.1876,-0.1878,-0.1931,-0.1947,-0.1954,-0.2026,-0.2054,-0.2067,-0.2078,-0.2056,-0.2054,-0.2082,-0.2027,-0.2055,-0.2048,-0.2061,-0.2052,-0.2042,-0.2033,-0.2156,-0.2157,-0.2158,0,0,-0.1804,-0.1817,-0.1801,-0.1811,-0.183,-0.1854,-0.1859,-0.1907,-0.1927,-0.1942,-0.1977,-0.1972,-0.1998,-0.199,-0.1989,-0.192,-0.1963,-0.1909,-0.1873,-0.1861,-0.1853,-0.1846,-0.1812,-0.1804,-0.1909,-0.1909,-0.1909,0,-0.1801,-0.1782,-0.18,-0.1788,-0.1794,-0.1841,-0.1832,-0.1853,-0.1905,-0.1914,-0.1927,-0.1942,-0.1957,-0.1928,-0.1889,-0.1898,-0.1896,-0.1935,-0.185,-0.1844,-0.1838,-0.1806,-0.1797,-0.1905,-0.1905,-0.1906,-0.1906,0,-0.1758,-0.1753,-0.174,-0.1739,-0.1747,-0.174,-0.1762,-0.1779,-0.181,-0.1834,-0.1819,-0.183,-0.1841,-0.1821,-0.1839,-0.1797,-0.1807,-0.1837,-0.1898,-0.1824,-0.1793,-0.1785,-0.1899,-0.19,-0.1901,-0.1902,0,0,-0.171,-0.1712,-0.1706,-0.1712,-0.172,-0.1724,-0.1716,-0.172,-0.1734,-0.1743,-0.1747,-0.1714,-0.1743,-0.174,-0.1757,-0.1743,-0.1684,-0.1774,-0.1775,-0.1762,-0.1642,-0.1557,-0.154,-0.1712,-0.1711,-0.171,-0.1625,0,-0.167,-0.1645,-0.165,-0.1639,-0.1634,-0.1663,-0.1659,-0.1673,-0.1685,-0.1698,-0.1688,-0.1691,-0.1703,-0.171,-0.1691,-0.1703,-0.1666,-0.1704,-0.1698,-0.1698,-0.165,-0.1529,-0.1443,-0.1353,-0.1618,-0.1616,-0.1615,0,-0.1611,-0.1608,-0.1586,-0.1605,-0.1604,-0.1604,-0.1616,-0.162,-0.1632,-0.1641,-0.1639,-0.1656,-0.1634,-0.1656,-0.1619,-0.1649,-0.1631,-0.1628,-0.1625,-0.1572,-0.1597,-0.1474,-0.1329,-0.1603,-0.1604,-0.1605,-0.1606,0,-0.1565,-0.1559,-0.1545,-0.1549,-0.1572,-0.157,-0.1584,-0.1601,-0.1608,-0.1616,-0.1622,-0.1609,-0.1606,-0.1589,-0.1574,-0.1603,-0.1528,-0.1571,-0.1464,-0.1458,-0.1396,-0.1385,-0.1519,-0.152,-0.152,-0.152,-0.152,0,-0.151,-0.1499,-0.1528,-0.1523,-0.1518,-0.1547,-0.1544,-0.1561,-0.1578,-0.1576,-0.1598,-0.1585,-0.1592,-0.156,-0.1549,-0.1462,-0.1501,-0.1426,-0.142,-0.1361,-0.1349,-0.1595,-0.1604,-0.1517,-0.1518,-0.1518,-0.1519,0,-0.1455,-0.1469,-0.1463,-0.1487,-0.1496,-0.1496,-0.1525,-0.1528,-0.1553,-0.155,-0.1553,-0.1558,-0.1504,-0.1485,-0.1446,-0.1414,-0.1359,-0.1318,-0.1231,-0.1215,-0.1303,-0.131,-0.1186,-0.1182,-0.1178,-0.1175,-0.1173,0,-0.1421,-0.1413,-0.1437,-0.1438,-0.1446,-0.1458,-0.1466,-0.1504,-0.151,-0.1524,-0.1514,-0.1473,-0.1413,-0.1306,-0.1238,-0.1151,-0.1239,-0.1035,-0.1063,-0.1256,-0.1265,-0.1277,-0.1288,-0.0944,-0.094,-0.0937,-0.0934,0,-0.1361,-0.1373,-0.1374,-0.1378,-0.1386,-0.1397,-0.1413,-0.1407,-0.1445,-0.144,-0.1404,-0.1356,-0.1246,-0.1102,-0.0991,-0.0946,-0.1043,-0.0962,-0.1178,-0.1041,-0.1021,-0.1033,-0.1053,-0.0905,-0.0908,-0.091,-0.0911,-0.0913,-0.1313,-0.1301,-0.1305,-0.1303,-0.1316,-0.1305,-0.1259,-0.129,-0.1269,-0.1219,-0.1258,-0.1151,-0.1101,-0.0864,-0.0782,-0.0719,-0.0801,-0.0789,-0.0803,-0.0819,-0.0805,-0.078,-0.0615,-0.0616,-0.0617,-0.0618,-0.0619,0,-0.1241,-0.1233,-0.123,-0.1196,-0.1153,-0.1208,-0.1195,-0.1129,-0.1055,-0.1057,-0.1003,-0.0861,-0.074,-0.0693,-0.0539,-0.049,-0.0523,-0.0478,-0.0542,-0.057,-0.0595,-0.0574,-0.032,-0.0319,-0.0318,-0.0318,0,0,-0.1196,-0.1161,-0.1157,-0.1043,-0.1012,-0.092,-0.0884,-0.0832,-0.0801,-0.0717,-0.0674,-0.0706,-0.0681,-0.0523,-0.0458,-0.0364,-0.0469,-0.0337,-0.0576,-0.0679,-0.0704,-0.0766,-0.0763,0,0,0,0,0]},{"header":{"parameterUnit":"m.s-1","parameterCategory":2,"la1":30.2991,"la2":30.254,"lo1":-89.0895,"lo2":-89.0444,"dy":0.0017,"dx":0.0017,"nx":28,"ny":28,"refTime":"2025-08-18T09:00:00:Z","depth":"2","parameterNumber":3,"parameterNumberName":"V-component_of_CURRENTS"},"data":[0,0,0,0,0,0,0,0,0,0,0,0,0,0,0,0,0,0,0,0,0,0,0,0,0,0,0,0,0,0,0,0,0,0,0,0,0,0,0,0,0,0,0,0,0,0,0,0,0,0,0,0,0,0,0,0,0,0,-0.0459,-0.0459,0,-0.036,-0.0359,-0.0358,-0.0292,-0.0292,-0.0292,-0.0292,-0.0096,-0.0091,-0.0086,0,0,0,0,0,0,0,0,0,0,0,0,0,-0.0527,-0.0526,-0.0459,-0.0458,-0.0458,-0.0361,-0.0359,-0.0357,-0.0292,-0.0292,-0.0292,-0.0292,-0.0097,-0.0091,-0.0085,0,0,0,0,0,0,0,0,0,0,0,0,0,-0.0467,-0.0526,-0.046,-0.0416,-0.0411,-0.0361,-0.0359,-0.0357,-0.0292,-0.0292,-0.0292,-0.0292,-0.0099,-0.0092,-0.0085,-0.0042,0,0,-0.0061,-0.0058,0,0,0,0,0,0,0,0,-0.0471,-0.0464,-0.0423,-0.0419,-0.0413,-0.0341,-0.0311,-0.0248,-0.0292,-0.0334,-0.0292,-0.0291,-0.0171,-0.0157,-0.0136,-0.0033,-0.0025,-0.0061,-0.0056,-0.0053,-0.0051,0,0,0,0,0,0,0,-0.0475,-0.0468,-0.0417,-0.0422,-0.0416,-0.0379,-0.037,-0.0299,-0.0251,-0.033,-0.0326,-0.032,-0.0167,-0.0144,-0.0131,-0.0022,-0.0061,-0.0054,-0.0049,-0.0046,0.0133,0.0134,0,0,0,0,0,0,-0.0497,-0.0472,-0.042,-0.0414,-0.0445,-0.0378,-0.0368,-0.0362,-0.0254,-0.0239,-0.032,-0.0317,-0.0157,-0.014,-0.0124,-0.0067,-0.0053,-0.0046,-0.0041,0.0133,0.0134,0.0134,0,0,0,0,0,0,-0.0499,-0.0493,-0.0424,-0.0443,-0.0432,-0.0378,-0.0371,-0.036,-0.0335,-0.0248,-0.023,-0.0306,-0.0156,-0.0135,-0.0072,-0.0059,-0.0042,-0.0035,0.0133,0.0133,0.0134,0.0047,0,0,0,0,0,0,-0.0501,-0.0494,-0.0497,-0.0445,-0.0432,-0.0397,-0.0371,-0.0359,-0.0333,-0.0328,-0.0229,-0.0211,-0.0154,-0.0084,-0.0065,-0.0048,-0.0029,0.0133,0.0133,0.0134,0.0049,0.0044,0.0039,0,0,0,0,0,-0.0504,-0.0503,-0.0497,-0.0491,-0.0438,-0.0397,-0.0387,-0.0345,-0.0333,-0.0321,-0.0266,-0.0214,-0.0067,-0.0078,-0.0055,-0.0036,0.0132,0.0133,0.0133,0.0051,0.0045,0.004,0,0,0,0,0,0,-0.053,-0.0496,-0.0488,-0.0477,-0.0445,-0.0387,-0.0374,-0.0349,-0.0296,-0.0292,-0.0212,-0.019,-0.013,-0.0073,-0.0087,0.0016,0.0043,0.0048,-0.0028,-0.0033,-0.0038,-0.0051,-0.0023,0,0,0,0,0,-0.0542,-0.0534,-0.0495,-0.0488,-0.0474,-0.0427,-0.0407,-0.0381,-0.033,-0.0307,-0.0243,-0.0173,-0.0109,-0.0067,-0.0002,0.0057,0.0093,0.0085,0.008,0.0075,0.008,0.0121,0.012,0.0135,0.0135,0.0135,0,0,-0.0552,-0.0532,-0.0528,-0.0494,-0.0465,-0.0442,-0.0413,-0.0386,-0.0363,-0.0292,-0.0241,-0.0187,-0.0099,-0.0041,-0.0007,0.0009,0.0089,0.0076,0.0071,0.0078,0.0121,0.012,0.0118,0.0136,0.0136,0.0136,0,0,-0.0562,-0.0551,-0.0545,-0.0522,-0.0488,-0.0457,-0.0454,-0.0401,-0.0375,-0.0328,-0.0274,-0.0221,-0.0117,-0.0059,-0.0014,-0.0004,0.0056,0.0023,-0.0003,0.0036,0.0035,0.0034,0.0066,0.0069,0.0026,0.0026,0.0026,0,-0.0577,-0.0563,-0.0537,-0.0523,-0.0507,-0.0468,-0.0454,-0.042,-0.0355,-0.0334,-0.0321,-0.0191,-0.0124,-0.005,-0.005,-0.0014,0.0013,0.0008,0.0027,0.0028,0.0029,0.0062,0.0066,0.0022,0.0022,0.0022,0.0023,0,-0.0576,-0.0567,-0.0561,-0.0534,-0.0513,-0.0496,-0.0455,-0.0431,-0.0402,-0.0365,-0.0301,-0.0226,-0.0148,-0.012,-0.0078,-0.0032,-0.0014,0.0008,0.0035,0.0021,0.0058,0.0064,0.0016,0.0017,0.0018,0.0019,0,0,-0.0599,-0.0568,-0.0566,-0.056,-0.052,-0.0503,-0.0475,-0.0433,-0.0414,-0.036,-0.0326,-0.0234,-0.0204,-0.0152,-0.0096,-0.0061,-0.004,-0.003,-0.0026,-0.0012,0.0039,0.0052,0.0061,-0.0022,-0.0021,-0.002,0.0057,0,-0.0605,-0.0594,-0.057,-0.0557,-0.0548,-0.0513,-0.049,-0.0452,-0.0412,-0.0371,-0.0305,-0.0249,-0.0212,-0.0181,-0.0142,-0.0058,-0.0026,-0.0063,0.0064,0.0068,0.0069,0.0068,0.0069,0.0139,0.0063,0.0064,0.0065,0,-0.0605,-0.0599,-0.0594,-0.0574,-0.0567,-0.0555,-0.052,-0.0492,-0.0431,-0.0401,-0.0346,-0.0291,-0.022,-0.0198,-0.0078,-0.0106,-0.0042,0.0013,0.0017,0.0067,0.0092,0.0145,0.0153,0.0076,0.0075,0.0074,0.0074,0,-0.0632,-0.0613,-0.0614,-0.0606,-0.0577,-0.0572,-0.0554,-0.0504,-0.0481,-0.0421,-0.0398,-0.0311,-0.0259,-0.0178,-0.0066,-0.0072,0.0057,0.0068,0.0139,0.0141,0.0189,0.0194,0.0143,0.0143,0.0143,0.0143,0.0142,0,-0.0643,-0.0641,-0.0631,-0.0632,-0.0636,-0.0605,-0.0594,-0.0565,-0.0517,-0.0482,-0.0419,-0.0367,-0.0254,-0.0163,-0.0075,0.0052,0.0054,0.0138,0.0164,0.0158,0.0159,0.0147,0.0146,0.0146,0.0145,0.0144,0.0144,0,-0.0666,-0.0656,-0.066,-0.065,-0.0649,-0.0655,-0.0632,-0.0618,-0.0572,-0.0525,-0.0508,-0.0402,-0.0282,-0.0169,-0.0019,0.005,0.0164,0.0207,0.0187,0.0209,0.0221,0.0215,0.0292,0.0293,0.0294,0.0295,0.0296,0,-0.0672,-0.0679,-0.0687,-0.07,-0.0698,-0.0699,-0.0697,-0.0655,-0.0631,-0.0534,-0.051,-0.0391,-0.0285,-0.0078,0.0062,0.0211,0.0206,0.029,0.0282,0.022,0.0238,0.023,0.0224,0.0311,0.0312,0.0312,0.0313,0,-0.0689,-0.0698,-0.0707,-0.0739,-0.075,-0.0751,-0.0739,-0.073,-0.0661,-0.0616,-0.0513,-0.0422,-0.0206,-0.0029,0.0152,0.024,0.0262,0.0307,0.0267,0.0264,0.0242,0.0258,0.025,0.0318,0.0318,0.0318,0.0317,0.0317,-0.0704,-0.0724,-0.0745,-0.0774,-0.0791,-0.0796,-0.0796,-0.0766,-0.0729,-0.064,-0.0537,-0.0389,-0.0197,0.0065,0.0208,0.0332,0.0329,0.0363,0.0359,0.0356,0.0335,0.0315,0.0401,0.0401,0.0401,0.0401,0.0401,0,-0.0713,-0.0742,-0.0776,-0.0808,-0.0834,-0.0832,-0.0816,-0.079,-0.0751,-0.0643,-0.0543,-0.0327,-0.0124,0.0068,0.0281,0.0403,0.0393,0.0415,0.0385,0.038,0.0375,0.0354,0.0426,0.0427,0.0427,0.0427,0,0,-0.0719,-0.0756,-0.0779,-0.0835,-0.0861,-0.0869,-0.0861,-0.0809,-0.0724,-0.061,-0.05,-0.037,-0.0105,0.0034,0.0205,0.0327,0.0314,0.0334,0.0306,0.0248,0.0241,0.0345,0.0307,0,0,0,0,0]}],[{"header":{"parameterUnit":"m.s-1","parameterCategory":2,"la1":30.2991,"la2":30.254,"lo1":-89.0895,"lo2":-89.0444,"dy":0.0017,"dx":0.0017,"nx":28,"ny":28,"refTime":"2025-08-18T09:00:00:Z","depth":"4","parameterNumber":2,"parameterNumberName":"U-component_of_CURRENTS"},"data":[0,0,0,0,0,0,0,0,0,0,0,0,0,0,0,0,0,0,0,0,0,0,0,0,0,0,0,0,0,0,0,0,0,0,0,0,0,0,0,0,0,0,0,0,0,0,0,0,0,0,0,0,0,0,0,0,0,0,-0.1177,-0.1177,0,-0.121,-0.1211,-0.1211,-0.1262,-0.1262,-0.1263,-0.1264,-0.13,-0.1301,-0.1301,0,0,0,0,0,0,0,0,0,0,0,0,0,-0.1193,-0.1192,-0.1177,-0.1177,-0.1177,-0.121,-0.1211,-0.1211,-0.1262,-0.1263,-0.1263,-0.1264,-0.13,-0.1301,-0.1301,0,0,0,0,0,0,0,0,0,0,0,0,0,-0.1204,-0.1192,-0.1177,-0.1204,-0.1207,-0.121,-0.1211,-0.1212,-0.1262,-0.1263,-0.1264,-0.1264,-0.13,-0.1301,-0.1301,-0.1285,0,0,-0.1303,-0.1303,0,0,0,0,0,0,0,0,-0.1203,-0.1204,-0.12,-0.1202,-0.1205,-0.1231,-0.123,-0.1235,-0.1261,-0.1243,-0.1264,-0.1265,-0.1275,-0.1277,-0.1285,-0.1287,-0.1288,-0.1303,-0.1303,-0.1303,-0.1304,0,0,0,0,0,0,0,-0.1203,-0.1203,-0.1193,-0.12,-0.1203,-0.1227,-0.123,-0.1231,-0.1255,-0.1245,-0.1248,-0.1247,-0.1277,-0.1285,-0.1286,-0.1289,-0.1303,-0.1303,-0.1304,-0.1304,-0.1299,-0.1298,0,0,0,0,0,0,-0.119,-0.1202,-0.1191,-0.1193,-0.1204,-0.1226,-0.1229,-0.1224,-0.1255,-0.126,-0.1247,-0.125,-0.1283,-0.1286,-0.1288,-0.1318,-0.1303,-0.1304,-0.1304,-0.1299,-0.1299,-0.1298,0,0,0,0,0,0,-0.119,-0.1188,-0.119,-0.1197,-0.1198,-0.1224,-0.1218,-0.1224,-0.1258,-0.1256,-0.1262,-0.1277,-0.1284,-0.1287,-0.13,-0.1318,-0.1304,-0.1305,-0.13,-0.1299,-0.1299,-0.1348,0,0,0,0,0,0,-0.119,-0.1188,-0.1199,-0.1195,-0.1197,-0.1201,-0.1217,-0.1223,-0.1253,-0.1258,-0.1283,-0.1286,-0.1285,-0.1299,-0.1301,-0.1319,-0.1305,-0.13,-0.13,-0.1299,-0.1347,-0.1349,-0.1351,0,0,0,0,0,-0.1191,-0.1194,-0.1199,-0.1199,-0.1204,-0.1201,-0.1205,-0.1228,-0.1253,-0.1265,-0.128,-0.1287,-0.1294,-0.1299,-0.1301,-0.132,-0.1301,-0.13,-0.1299,-0.1346,-0.1349,-0.1351,0,0,0,0,0,0,-0.1212,-0.1199,-0.1205,-0.1207,-0.1208,-0.1209,-0.1227,-0.1242,-0.1265,-0.1279,-0.1286,-0.1289,-0.1302,-0.1297,-0.1303,-0.1311,-0.1297,-0.1296,-0.1332,-0.1335,-0.1337,-0.1347,-0.1306,0,0,0,0,0,-0.1217,-0.1217,-0.1207,-0.1212,-0.1214,-0.1227,-0.1238,-0.1248,-0.1258,-0.1272,-0.1287,-0.1295,-0.1293,-0.1306,-0.1298,-0.1312,-0.1298,-0.132,-0.1322,-0.1324,-0.133,-0.1329,-0.1332,-0.1295,-0.1295,-0.1295,0,0,-0.1228,-0.122,-0.1223,-0.1217,-0.1226,-0.1233,-0.1238,-0.1252,-0.1269,-0.1269,-0.1307,-0.1301,-0.1294,-0.1303,-0.1309,-0.131,-0.1322,-0.1323,-0.1325,-0.133,-0.1328,-0.1332,-0.1336,-0.1294,-0.1294,-0.1294,0,0,-0.1238,-0.1242,-0.1245,-0.1247,-0.1251,-0.1253,-0.1262,-0.1271,-0.1291,-0.1307,-0.1309,-0.1321,-0.1325,-0.1329,-0.1329,-0.1337,-0.1325,-0.1329,-0.1364,-0.1363,-0.1367,-0.137,-0.1339,-0.1339,-0.1341,-0.1341,-0.1341,0,-0.1259,-0.1248,-0.1248,-0.1252,-0.1255,-0.1266,-0.1272,-0.1291,-0.1307,-0.1316,-0.1323,-0.1332,-0.1339,-0.135,-0.1356,-0.1347,-0.1328,-0.1363,-0.1369,-0.1372,-0.1374,-0.1342,-0.1341,-0.1343,-0.1343,-0.1342,-0.1342,0,-0.1259,-0.1265,-0.1268,-0.1273,-0.1283,-0.1285,-0.1298,-0.1319,-0.134,-0.135,-0.1366,-0.137,-0.1375,-0.1379,-0.1378,-0.1395,-0.1368,-0.1366,-0.1371,-0.1382,-0.1345,-0.1344,-0.1346,-0.1345,-0.1345,-0.1344,0,0,-0.125,-0.1265,-0.1266,-0.1273,-0.1289,-0.1291,-0.1323,-0.1334,-0.1355,-0.1378,-0.1395,-0.1413,-0.1417,-0.1416,-0.1416,-0.143,-0.1436,-0.1415,-0.1414,-0.1398,-0.1409,-0.1296,-0.1283,-0.1438,-0.1439,-0.1439,-0.1371,0,-0.1245,-0.1253,-0.1262,-0.1279,-0.1281,-0.1304,-0.1328,-0.1351,-0.1369,-0.139,-0.1407,-0.1419,-0.143,-0.1435,-0.1453,-0.1435,-0.1438,-0.1453,-0.1389,-0.1386,-0.1297,-0.128,-0.1441,-0.137,-0.137,-0.137,-0.1369,0,-0.1222,-0.1231,-0.1244,-0.1269,-0.1274,-0.1296,-0.1323,-0.1346,-0.138,-0.1394,-0.1418,-0.1425,-0.145,-0.1455,-0.1451,-0.1458,-0.144,-0.1429,-0.1426,-0.1305,-0.1271,-0.1358,-0.1367,-0.1367,-0.1367,-0.1367,-0.1368,0,-0.1183,-0.1209,-0.1218,-0.1227,-0.1266,-0.1285,-0.1309,-0.1347,-0.1363,-0.1399,-0.1406,-0.1432,-0.1437,-0.1438,-0.1422,-0.1438,-0.1397,-0.1411,-0.1287,-0.1278,-0.1383,-0.138,-0.1403,-0.1403,-0.1403,-0.1403,-0.1404,0,-0.1142,-0.1153,-0.1207,-0.121,-0.1229,-0.1269,-0.1292,-0.132,-0.1356,-0.1358,-0.1407,-0.14,-0.1436,-0.1417,-0.141,-0.1326,-0.1382,-0.1281,-0.1253,-0.1399,-0.14,-0.138,-0.1379,-0.1401,-0.1401,-0.1402,-0.1402,0,-0.1088,-0.1122,-0.1138,-0.119,-0.1209,-0.1225,-0.1277,-0.1287,-0.1333,-0.1335,-0.1345,-0.1373,-0.1336,-0.1341,-0.1321,-0.1284,-0.1236,-0.1193,-0.1321,-0.1304,-0.1121,-0.1122,-0.1047,-0.1042,-0.1039,-0.1035,-0.1033,0,-0.1055,-0.106,-0.1119,-0.1132,-0.1158,-0.1193,-0.1209,-0.1265,-0.1267,-0.1298,-0.1279,-0.1269,-0.127,-0.1136,-0.1169,-0.1113,-0.1109,-0.1076,-0.113,-0.1103,-0.1085,-0.1093,-0.1099,-0.1027,-0.1026,-0.1025,-0.1024,0,-0.0995,-0.1029,-0.1046,-0.107,-0.1094,-0.1108,-0.1135,-0.1124,-0.1167,-0.1231,-0.1165,-0.1132,-0.1076,-0.105,-0.1,-0.0977,-0.1099,-0.1036,-0.1045,-0.1096,-0.1077,-0.1065,-0.1076,-0.101,-0.1012,-0.1013,-0.1014,0,-0.0955,-0.0953,-0.098,-0.0987,-0.1015,-0.0989,-0.1023,-0.1006,-0.1012,-0.1053,-0.1026,-0.1018,-0.1051,-0.0975,-0.0939,-0.0891,-0.0892,-0.0881,-0.0898,-0.0913,-0.0903,-0.0862,-0.0693,0,0,0,0,0,-0.0906,-0.0886,-0.089,-0.0873,-0.0895,-0.0899,-0.0948,-0.0982,-0.103,-0.0948,-0.098,-0.0923,-0.0857,-0.0865,-0.0785,-0.0881,-0.0898,-0.0787,-0.0896,-0.0936,-0.0951,-0.0953,0,0,0,0,0,0,-0.0868,-0.0871,-0.0854,-0.0769,-0.0735,-0.0731,-0.0754,-0.0796,-0.0759,-0.0824,-0.0791,-0.0852,-0.0801,-0.0863,-0.0755,-0.0757,-0.0804,-0.08,-0.0797,-0.0927,-0.0941,-0.0954,-0.0961,0,0,0,0,0]},{"header":{"parameterUnit":"m.s-1","parameterCategory":2,"la1":30.2991,"la2":30.254,"lo1":-89.0895,"lo2":-89.0444,"dy":0.0017,"dx":0.0017,"nx":28,"ny":28,"refTime":"2025-08-18T09:00:00:Z","depth":"4","parameterNumber":3,"parameterNumberName":"V-component_of_CURRENTS"},"data":[0,0,0,0,0,0,0,0,0,0,0,0,0,0,0,0,0,0,0,0,0,0,0,0,0,0,0,0,0,0,0,0,0,0,0,0,0,0,0,0,0,0,0,0,0,0,0,0,0,0,0,0,0,0,0,0,0,0,-0.0336,-0.0335,0,-0.0303,-0.0302,-0.0302,-0.0292,-0.0293,-0.0293,-0.0293,-0.0243,-0.0242,-0.0241,0,0,0,0,0,0,0,0,0,0,0,0,0,-0.0366,-0.0366,-0.0336,-0.0335,-0.0335,-0.0303,-0.0302,-0.0302,-0.0292,-0.0293,-0.0293,-0.0293,-0.0244,-0.0242,-0.0241,0,0,0,0,0,0,0,0,0,0,0,0,0,-0.0346,-0.0366,-0.0336,-0.0326,-0.0324,-0.0303,-0.0302,-0.0302,-0.0292,-0.0293,-0.0293,-0.0293,-0.0245,-0.0242,-0.024,-0.0223,0,0,-0.0234,-0.0233,0,0,0,0,0,0,0,0,-0.0347,-0.0345,-0.0328,-0.0326,-0.0325,-0.0301,-0.0295,-0.0275,-0.0292,-0.0305,-0.0293,-0.0293,-0.0261,-0.0257,-0.0252,-0.0221,-0.0219,-0.0234,-0.0232,-0.0231,-0.0231,0,0,0,0,0,0,0,-0.0348,-0.0346,-0.0323,-0.0327,-0.0325,-0.0314,-0.0312,-0.0291,-0.0282,-0.0304,-0.0303,-0.0298,-0.026,-0.0254,-0.025,-0.0218,-0.0234,-0.0232,-0.023,-0.023,-0.0185,-0.0186,0,0,0,0,0,0,-0.0352,-0.0347,-0.0324,-0.0322,-0.0336,-0.0314,-0.0311,-0.0309,-0.0283,-0.0279,-0.0298,-0.0298,-0.0257,-0.0253,-0.0249,-0.0226,-0.0231,-0.0229,-0.0228,-0.0185,-0.0185,-0.0186,0,0,0,0,0,0,-0.0353,-0.0351,-0.0326,-0.0333,-0.0329,-0.0313,-0.0311,-0.0308,-0.0305,-0.0279,-0.0275,-0.0297,-0.0257,-0.0252,-0.0241,-0.0224,-0.0228,-0.0226,-0.0185,-0.0185,-0.0186,-0.0181,0,0,0,0,0,0,-0.0354,-0.0351,-0.0356,-0.0334,-0.0329,-0.0318,-0.0311,-0.0308,-0.0301,-0.03,-0.0276,-0.0272,-0.0257,-0.0244,-0.0238,-0.0221,-0.0225,-0.0185,-0.0185,-0.0185,-0.0181,-0.0181,-0.0181,0,0,0,0,0,-0.0355,-0.0359,-0.0356,-0.0354,-0.0335,-0.0318,-0.0315,-0.0304,-0.0301,-0.0301,-0.029,-0.0273,-0.0241,-0.0243,-0.0236,-0.0217,-0.0185,-0.0185,-0.0185,-0.0181,-0.0181,-0.0181,0,0,0,0,0,0,-0.0374,-0.0357,-0.0354,-0.0353,-0.034,-0.0317,-0.0317,-0.0306,-0.0297,-0.0299,-0.0275,-0.027,-0.0254,-0.0242,-0.0244,-0.0208,-0.0209,-0.0208,-0.0208,-0.0208,-0.0208,-0.0207,-0.0223,0,0,0,0,0,-0.0381,-0.038,-0.036,-0.0361,-0.0356,-0.0337,-0.033,-0.0322,-0.0308,-0.0304,-0.0287,-0.0269,-0.0249,-0.0235,-0.0222,-0.0199,-0.0181,-0.0185,-0.0185,-0.0185,-0.0181,-0.014,-0.0135,-0.0186,-0.0186,-0.0186,0,0,-0.0389,-0.0379,-0.0379,-0.0365,-0.0356,-0.0347,-0.0334,-0.0327,-0.0317,-0.0299,-0.0288,-0.0272,-0.0247,-0.0226,-0.0216,-0.0212,-0.0163,-0.0185,-0.0185,-0.0181,-0.0139,-0.0134,-0.0129,-0.0187,-0.0187,-0.0187,0,0,-0.0399,-0.0396,-0.0398,-0.0388,-0.0375,-0.0361,-0.0359,-0.0339,-0.033,-0.0319,-0.03,-0.0273,-0.0254,-0.0219,-0.0201,-0.0192,-0.017,-0.0193,-0.0181,-0.014,-0.0135,-0.0131,-0.0107,-0.01,-0.0185,-0.0185,-0.0185,0,-0.0412,-0.0408,-0.0396,-0.0393,-0.0386,-0.0367,-0.0364,-0.0349,-0.0328,-0.0317,-0.0321,-0.0271,-0.0244,-0.0197,-0.0193,-0.0187,-0.0175,-0.018,-0.0138,-0.0133,-0.0129,-0.0106,-0.0098,-0.0185,-0.0185,-0.0185,-0.0185,0,-0.0418,-0.0418,-0.0418,-0.0408,-0.04,-0.0395,-0.0373,-0.0364,-0.0353,-0.0333,-0.0301,-0.0265,-0.0232,-0.0214,-0.0198,-0.0146,-0.0153,-0.0148,-0.0135,-0.0123,-0.01,-0.0092,-0.0185,-0.0185,-0.0185,-0.0185,0,0,-0.0437,-0.0425,-0.0427,-0.0426,-0.0408,-0.0402,-0.0388,-0.0363,-0.0352,-0.0325,-0.0302,-0.0248,-0.0227,-0.0206,-0.0173,-0.0127,-0.0076,-0.0124,-0.0122,-0.0095,-0.0002,-0.0016,-0.0009,-0.0067,-0.0065,-0.0064,-0.0002,0,-0.0446,-0.0448,-0.0437,-0.0437,-0.0433,-0.0414,-0.0403,-0.038,-0.0359,-0.0334,-0.0279,-0.0252,-0.0224,-0.0206,-0.0154,-0.0103,-0.0055,-0.0094,-0.0023,-0.0021,-0.0029,0.0,-0.0059,0.0004,0.0005,0.0007,0.0008,0,-0.0451,-0.0452,-0.0457,-0.0449,-0.0447,-0.0447,-0.0427,-0.0412,-0.0369,-0.0353,-0.0307,-0.0275,-0.0201,-0.0187,-0.0077,-0.0109,-0.0054,-0.001,-0.0006,-0.0014,-0.002,-0.001,0.0022,0.0021,0.002,0.0019,0.0018,0,-0.0464,-0.0463,-0.047,-0.0468,-0.0457,-0.046,-0.0453,-0.0422,-0.0408,-0.0363,-0.0351,-0.0272,-0.0234,-0.0154,-0.0066,-0.0072,0.0046,0.0049,0.0092,0.0091,0.0082,0.0076,0.0135,0.0135,0.0135,0.0134,0.0134,0,-0.0467,-0.0473,-0.0482,-0.0486,-0.0498,-0.0483,-0.0484,-0.0467,-0.0436,-0.0414,-0.0363,-0.0325,-0.0224,-0.0148,-0.007,0.0031,0.0045,0.0102,0.0113,0.0079,0.0073,0.0087,0.0081,0.0137,0.0136,0.0136,0.0135,0,-0.0472,-0.0477,-0.049,-0.0498,-0.0505,-0.0515,-0.0516,-0.051,-0.0482,-0.0453,-0.0441,-0.0358,-0.026,-0.0163,-0.0029,0.0023,0.012,0.0154,0.0101,0.0107,0.0137,0.013,0.0208,0.0208,0.0208,0.0208,0.0208,0,-0.0469,-0.0479,-0.0509,-0.0528,-0.0536,-0.0551,-0.0559,-0.0538,-0.0526,-0.0464,-0.0447,-0.0356,-0.0291,-0.0122,-0.0019,0.012,0.0143,0.0179,0.0175,0.0145,0.0149,0.0141,0.0134,0.0209,0.0209,0.0209,0.0209,0,-0.0468,-0.0489,-0.0505,-0.055,-0.0573,-0.0588,-0.0595,-0.0587,-0.0549,-0.0526,-0.0442,-0.035,-0.024,-0.0114,-0.0012,0.0092,0.0145,0.0182,0.0182,0.0178,0.0148,0.0149,0.0142,0.0209,0.0209,0.0209,0.0209,0,-0.0474,-0.0494,-0.053,-0.0564,-0.0601,-0.0617,-0.0615,-0.0589,-0.0569,-0.0496,-0.0463,-0.0344,-0.0267,-0.0126,-0.0026,0.0063,0.009,0.0111,0.0116,0.0116,0.0069,0.0015,0.0056,0,0,0,0,0,-0.0474,-0.0502,-0.0539,-0.058,-0.0617,-0.0634,-0.0634,-0.0621,-0.0583,-0.0528,-0.0493,-0.0387,-0.0227,-0.0153,-0.0063,-0.0028,0.0095,0.0077,0.0119,0.0213,0.0212,0.0171,0,0,0,0,0,0,-0.0477,-0.0516,-0.0538,-0.0587,-0.0617,-0.0648,-0.0649,-0.0621,-0.0581,-0.0531,-0.0444,-0.038,-0.0226,-0.0282,-0.0068,-0.0038,-0.0003,0.0158,0.016,0.0213,0.0213,0.0212,0.0169,0,0,0,0,0]}]]